Погода в Новоселенгинске

Погода в Новоселенгинске : погода сейчас, прогноз погоды и архив. Всё, что Вы хотите узнать о погоде в Новоселенгинске!

Поиск расширенной информации на нашем сайте:

Другие новости

Новости СМИ2

Главная страница сайта

Новости сайта

03.07.2017

Напоминаем, что на нашем специализированном сайте Метеоцентр.Азия вы можете получить высокодетализированные автоматические прогнозы погоды по пунктам России, СНГ и мира в авиационном формате (включающие направление и скорость ветра, видимость, явления погоды, количество и форму облачности, нижнюю и верхнюю границу облачности).

Рекомендуем: купить хозтовары спб

Погода в Новоселенгинске - сегодня

Время (UTC), дата Ветер
(°,м/с) 
Видим.   Явления Облачность Т
(°С)
Тd
(°С)
f(%) Тe
(°С)
Pmin
(гПа)
dP
(гПа)
Po
(мм)
O2
(г/м3)
Тmin Tmax R s Состояние
почвы
03 19.10.17 190 (Ю) 20000 м  {туман}  3/0 верхняя 
[Ci fib]
+1.8 -2.4 74 +3  1019.2  -0.6  714  286           
06 19.10.17 тихо ()   20000 м  {туман}  3/0 верхняя 
[Ci fib]
+8.6 -1.8 48 +9  1016.3  -1.1  713  279           
09 19.10.17 340 (С) 20000 м    3/0 верхняя 
[Ci fib]
+10.4 -2.2 41 +9  1016.5  0.6  713  277           
12 19.10.17 040 (СВ) 50000 м    ясно 
+3.1 -2.3 68 +2  1021  2.5  715  285    +11.1       
15 19.10.17 тихо ()   50000 м    3/0 верхняя 
[Ci fib]
-1.1 -3.6 83 -1  1024.3  717  290           
18 19.10.17 080 (В) 50000 м    ясно 
-4.4 -6 89 -4  1026.1  0.9  717  294           
21 19.10.17 тихо ()   50000 м    ясно 
-6.6 -7.4 94 -7  1027.4  0.7  718  297           
00 20.10.17 330 (СЗ) 20000 м  в посл. час туман  3/0 верхняя 
[Ci fib]
-6.6 -7.1 96 -8  1028.6  1.1  719  297  -7.8         
03 20.10.17 190 (Ю) 20000 м    ясно 
+1.7 -2.5 74 +2  1026.2  -0.2  719  288           
06 20.10.17 240 (ЮЗ) 20000 м    8/0 верхняя 
[Ci fib]
+8.7 -2.4 46 +10  1022.6  -1.8  717  280           
09 20.10.17 200 (Ю) 20000 м    10/0 средняя, верхняя 
[Ac lent|Ci fib]
+8.6 -2.9 44 +10  1020.8  -1.7  716  280           
12 20.10.17 320 (СЗ) 50000 м    4/0 верхняя 
[Ci fib]
-0.7 -4.9 73 -2  1023.3  0.2  716  290    +9.2       
15 20.10.17 060 (СВ) 50000 м    8/0 средняя, верхняя 
[Ac trans|Ci fib]
-2 -4.2 85 -3  1023.6  716  291           
18 20.10.17 060 (СВ) 50000 м    10/0 средняя, верхняя 
[Ac trans|Ci fib]
-1.7 -3.8 86 -4  1023.3  -0.2  716  291           
21 20.10.17 080 (В) 50000 м    10/0 средняя, верхняя 
[Ac trans|Ci fib]
-1.8 -3.9 86 -1  1023.4  -0.1  716  291           
00 21.10.17 040 (СВ) 20000 м    10/3 600 м кучево-дожд., средняя, верхняя 
[Cb cap|Ac trans|Ci sp]
-0.7 -4.6 75 1024.7  1.4  717  290  -3.4         
03 21.10.17 050 (СВ) 11000 м  слаб. ливневой снег  10/4 600 м кучево-дожд., средняя 
[Cb cap|Ac As]
-1.2 -2.1 94 -3  1026.3  1.3  718  291           
06 21.10.17 160 (Ю) 20000 м  {ливн. осадки}  10/3 1000 м средняя, верхняя 
[Sc|Ac trans|Ci fib]
+3.7 +0.1 77 +5  1025  718  285           
09 21.10.17 190 (Ю) 20000 м    3/0 верхняя 
[Ci fib]
+5.9 +1.4 73 +5  1024.1  -0.3  718  283           
12 21.10.17 280 (З) 50000 м    3/0 верхняя 
[Ci fib]
+1 -0.4 90 +2  1026.7  1.3  719  289    +6.2     
15 21.10.17 тихо ()   50000 м    3/0 верхняя 
[Ci fib]
-2.3 -2.8 96 -2  1028.3  0.7  719  293           
18 21.10.17 тихо ()   0300 м  туман  3/0 верхняя 
[Ci fib]
-3.1 -3.5 97 -3  1028.3  -0.2  719  293           
21 21.10.17 260 (З) 0300 м  туман  ?/?  
-2.6 -2.8 99 -2  1027.7  -0.4  719  293           
00 22.10.17 тихо ()   0400 м  туман  ?/?  
-2 -2.2 99 -2  1027.6  719  292  -4         
03 22.10.17 180 (Ю) 20000 м  в посл. час туман  10/5 300 м верхняя 
[St|Ci sp]
-0.4 -0.6 99 -1  1027.1  719  290           
Время (UTC), дата Ветер
(°,м/с) 
Видим.   Явления Облачность Т
(°С)
Тd
(°С)
f(%) Тe
(°С)
Pmin
(гПа)
dP
(гПа)
Po
(мм)
O2
(г/м3)
Тmin Tmax R s Состояние
почвы

Для получения пояснительной информации подведите курсор к названию столбца.

ПОГОДА в Новоселенгинске - архив

Всё, что Вы хотите узнать о погоде в Новоселенгинске - удобно и подробно!

Выберите нужную дату (начиная с 1 января 2015* года) и нажмите кнопку "Найти".
Будут отображены архивные сводки погоды по пункту Новоселенгинск, начиная с указанной даты.


Отображать данные в формате CSV (для использования в таблицах Excel)


Внимание! Наш архив погоды предназначен исключительно для личного некоммерческого использования в познавательных целях. Если Вам необходимы официальные справки о состоянии погоды (для производственных, юридических, коммерческих и т.п. целей), обращайтесь в органы Росгидромета.

*Примечание: данная дата относится к архиву по метеостанциям СССР (Россия, СНГ, Балтия).
Архив по метеостанциям Зарубежной Европы и Азии (кроме Китая) хранится 10 дней, по другим регионам земного шара (Китай, Африка, Америка, Австралия, Океания) - 1 день.

Новоселенгинск - район местоположения метеостанции


Название, широта, долгота, высота метеостанции:
Новоселенгинск 51.1°ш. 106.6°д. 556 м над ур. моря [Российская Федерация]

Дополнительная информация

В oтличие oт бoльшинства пoгoдных сайтoв мы публикуем пoдрoбную метеoинфoрмацию в детальнoм прoфессиoнальнoм фoрмате.

Характеристики температуры и влажнoсти вoздуха измеряются на высoте 2 м в тени вдали oт зданий и деревьев.
Скoрoсть ветра измеряется на высoте 10 м (на урoвне рoста челoвека скoрoсть ветра ниже в 1.5-2 раза). Если метеoстанция нахoдится в гoрoде или в лесу, тo скoрoсть ветра занижена на 2-4 м/с пo сравнению с oткрытым местoм. Скoрoсть ветра над акватoриями крупных рек и oзёр, а также на вершинах хoлмoв на 2-5 м/с выше, чем в oбычных услoвиях.
Атмoсфернoе давление в разных тoчках местнoсти мoжет значительнo oтличаться oт давления на метеoстанции, в зависимoсти oт услoвий рельефа (при пoдъёме на 10 м давление пoнижается примернo на 1 мм рт.ст.).